RADUGA 32 1 23448U 94087A 10248.97652647 -.00000065 00000-0 10000-3 0 3035 2 23448 11.1811 47.2895 0004591 112.3764 247.7841 1.00265526 75152 RADUGA-1 4 1 25642U 99010A 10250.10896196 .00000135 00000-0 00000+0 0 3965 2 25642 9.9315 62.6545 0002392 117.4597 242.7211 1.00300166 42200 RADUGA-1 5 1 26477U 00049A 10249.57878183 -.00000220 00000-0 10000-3 0 9238 2 26477 7.5552 61.5448 0001194 19.5557 201.5845 1.00211978 36707 RADUGA-1 7 1 28194U 04010A 10250.71832328 -.00000360 00000-0 10000-3 0 2246 2 28194 4.9151 76.9650 0001033 137.5213 158.6243 1.00261120 23623 RADUGA-1M 1 1 32373U 07058A 10250.67226468 -.00000057 00000-0 10000-3 0 7947 2 32373 0.0129 214.0221 0002414 293.3828 151.2440 1.00272037 10954